Location: Maynard F. Jordan Observatory
(44.9000°N, 68.6700°W)
Time: 11:18:28
(UTC-04:00)

Cosmos 2297 Rocket - Visible Passes

Search period start: 26 May 2018 00:00
Search period end: 05 June 2018 00:00
Orbit: 839 x 844 km, 71.0° (Epoch: 25 May)

Date Brightness Start Highest point End Pass type
(mag) Time Alt. Az. Time Alt. Az. Time Alt. Az.
26 May 4.5 01:42:37 10° W 01:46:16 17° NW 01:49:55 10° N visible
26 May 4.0 22:02:38 14° E 22:03:01 14° E 22:05:45 10° ENE visible
26 May 2.1 23:44:25 46° SSW 23:46:13 88° WNW 23:51:55 10° NNE visible
27 May 4.4 01:27:20 10° W 01:31:06 18° NW 01:34:53 10° N visible
27 May 4.0 21:47:15 13° ESE 21:47:57 13° E 21:50:25 10° ENE visible
27 May 2.1 23:29:01 41° SSW 23:31:06 88° ESE 23:36:48 10° NNE visible
28 May 4.4 01:12:04 10° W 01:15:57 19° NW 01:19:51 10° N visible
28 May 4.0 21:31:46 12° ESE 21:32:53 12° E 21:35:02 10° ENE visible
28 May 2.1 23:13:31 35° SSW 23:16:00 84° ESE 23:21:42 10° NNE visible
29 May 4.4 00:56:48 10° W 01:00:47 19° NW 01:04:49 10° N visible
29 May 4.0 21:16:10 10° ESE 21:17:50 11° E 21:19:34 10° ENE visible
29 May 2.1 22:57:55 29° SSW 23:00:54 80° ESE 23:06:35 10° NNE visible
30 May 4.4 00:41:33 10° W 00:45:38 20° NW 00:49:45 10° N visible
30 May 4.1 21:01:35 10° ESE 21:02:46 11° E 21:03:59 10° E visible
30 May 2.1 22:42:10 23° SSW 22:45:48 77° ESE 22:51:29 10° NNE visible
31 May 4.4 00:26:18 10° W 00:30:30 21° NW 00:34:42 10° N visible
31 May 2.1 22:26:14 17° SSW 22:30:42 73° ESE 22:36:22 10° NNE visible
01 Jun 4.4 00:11:03 10° W 00:15:21 22° NW 00:19:40 10° N visible
01 Jun 2.1 22:10:02 10° SSW 22:15:36 69° ESE 22:21:14 10° NNE visible
01 Jun 4.4 23:55:48 10° W 00:00:11 23° NW 00:04:36 10° N visible
02 Jun 2.2 21:54:54 10° SSW 22:00:30 66° ESE 22:06:07 10° NNE visible
02 Jun 4.3 23:40:34 10° W 23:45:02 23° NW 23:49:32 10° N visible
03 Jun 2.2 21:39:50 10° S 21:45:24 62° ESE 21:51:00 10° NNE visible
03 Jun 4.3 23:25:20 10° WSW 23:29:54 24° NW 23:34:29 10° N visible
04 Jun 2.3 21:24:46 10° S 21:30:18 59° ESE 21:35:52 10° NNE visible
04 Jun 4.3 23:10:07 10° WSW 23:14:45 25° NW 23:19:25 10° N visible
